Location: Champs
(48.8539°N, 2.6040°E)
Time: 19:24:19
(UTC+00:00)

ATLAS CENTAUR R/B - Pass Details

Date: 31 May 2022
Orbit: 443 x 688 km, 64.6° (Epoch: 07 June)

Event Time Altitude Azimuth Distance (km) Brightness Sun altitude
Rises 22:29:19 0° 313° (NW) 3,054 6.2 -17.0°
Reaches altitude 10° 22:31:56 10° 303° (WNW) 2,117 5.0 -17.2°
Maximum altitude 22:36:02 28° 245° (WSW) 1,228 3.0 -17.4°
Enters shadow 22:37:45 22° 210° (SSW) 1,404 3.0 -17.4°
